Weather History for Houlton, ME

Change the Weather History Date:

Friday, April 5, 2013

  Actual Average Record
Temperature  
Mean Temperature 42 °F 34 °F  
Max Temperature 55 °F 44 °F 69 °F (2010)
Min Temperature 29 °F 24 °F 2 °F (2003)
Degree Days  
Heating Degree Days 23 31  
Month to date heating degree days 165 159  
Since 1 July heating degree days 7345 7955  
Cooling Degree Days 0 0  
Month to date cooling degree days 0 0  
Year to date cooling degree days 0 0  
Moisture  
Dew Point 24 °F    
Average Humidity 54    
Maximum Humidity 75    
Minimum Humidity 32    
Precipitation  
Precipitation 0.00 in 0.12 in 1.11 in (1960)
Month to date precipitation 0.37 0.62  
Year to date precipitation 4.54 8.07  
Sea Level Pressure  
Sea Level Pressure 29.73 in    
Wind  
Wind Speed 7 mph (West)    
Max Wind Speed 17 mph    
Max Gust Speed 22 mph    
Visibility 10 miles    
Events      
T = Trace of Precipitation, MM = Missing Value Source: NWS Daily Summary

Daily Weather History Graph

Daily Weather History Graph

Search for Another Location

Airport:

Trip Planner

Search our weather history database for the weather conditions in past years. The results will help you decide how hot, cold, wet, or windy it might be!

Date:

Astronomy

Apr. 05, 2013 Rise Set
Actual Time 6:02 AM EDT 7:05 PM EDT
Civil Twilight 5:32 AM EDT 7:36 PM EDT
Nautical Twilight 4:55 AM EDT 8:12 PM EDT
Astronomical Twilight 4:17 AM EDT 8:51 PM EDT
Moon 3:23 AM EDT (4/5) 2:11 PM EDT (4/5)
Length of Visible Light 14h 03m
Length of Day
13h 02m
Waning Crescent, 24% of the Moon is Illuminated
Apr 5
Waning Crescent
Apr 10
New
Apr 18
First Quarter
Apr 25
Full
May 2
Last Quarter

Hourly Weather History & Observations

Time (EDT) Temp. Windchill Dew Point Humidity Pressure Visibility Wind Dir Wind Speed Gust Speed Precip Events Conditions
12:53 AM 34.0 °F 29.8 °F 16.0 °F 48% 29.89 in 10.0 mi SSW 4.6 mph - N/A   Clear
1:53 AM 30.9 °F - 17.1 °F 57% 29.88 in 10.0 mi Calm Calm - N/A   Clear
2:53 AM 34.0 °F 31.0 °F 19.0 °F 54% 29.86 in 10.0 mi South 3.5 mph - N/A   Overcast
3:53 AM 33.1 °F 28.7 °F 19.0 °F 56% 29.84 in 10.0 mi South 4.6 mph - N/A   Overcast
4:53 AM 33.1 °F 26.9 °F 19.9 °F 59% 29.84 in 10.0 mi South 6.9 mph - N/A   Partly Cloudy
5:53 AM 33.1 °F 28.7 °F 21.9 °F 64% 29.82 in 10.0 mi South 4.6 mph - N/A   Clear
6:53 AM 33.1 °F - 24.1 °F 70% 29.81 in 10.0 mi Calm Calm - N/A   Partly Cloudy
7:53 AM 36.0 °F 31.1 °F 25.0 °F 64% 29.80 in 10.0 mi SSW 5.8 mph - N/A   Clear
8:53 AM 39.0 °F 33.4 °F 24.1 °F 55% 29.78 in 10.0 mi SSW 8.1 mph - N/A   Clear
9:53 AM 44.1 °F 40.1 °F 24.1 °F 45% 29.75 in 10.0 mi South 6.9 mph - N/A   Clear
10:53 AM 48.9 °F - 23.0 °F 36% 29.72 in 10.0 mi Variable 6.9 mph - N/A   Clear
11:53 AM 50.0 °F - 23.0 °F 35% 29.68 in 10.0 mi SSW 11.5 mph 18.4 mph N/A   Clear
12:53 PM 52.0 °F - 25.0 °F 35% 29.67 in 10.0 mi Variable 5.8 mph - N/A   Clear
1:53 PM 51.1 °F - 23.0 °F 33% 29.64 in 10.0 mi SW 8.1 mph - N/A   Mostly Cloudy
2:53 PM 48.9 °F - 21.0 °F 33% 29.63 in 10.0 mi NW 11.5 mph 21.9 mph N/A   Mostly Cloudy
3:53 PM 46.0 °F 41.0 °F 27.0 °F 47% 29.64 in 10.0 mi NW 10.4 mph - N/A   Overcast
4:53 PM 45.0 °F 43.5 °F 28.0 °F 52% 29.63 in 10.0 mi Variable 3.5 mph - N/A   Overcast
5:53 PM 45.0 °F 41.2 °F 27.0 °F 49% 29.63 in 10.0 mi WNW 6.9 mph - N/A   Overcast
6:53 PM 43.0 °F 39.5 °F 24.1 °F 47% 29.65 in 10.0 mi NW 5.8 mph - N/A   Mostly Cloudy
7:53 PM 39.9 °F 35.8 °F 23.0 °F 51% 29.66 in 10.0 mi NW 5.8 mph - N/A   Partly Cloudy
8:53 PM 37.9 °F 32.1 °F 26.1 °F 62% 29.69 in 10.0 mi NW 8.1 mph - N/A   Scattered Clouds
9:17 PM 37.4 °F 29.3 °F 28.4 °F 70% 29.68 in 10.0 mi North 12.7 mph 18.4 mph N/A   Mostly Cloudy
9:53 PM 36.0 °F 28.0 °F 28.0 °F 73% 29.70 in 10.0 mi North 11.5 mph - N/A   Overcast
10:09 PM 35.6 °F 28.0 °F 28.4 °F 75% 29.68 in 10.0 mi NNW 10.4 mph - N/A   Overcast
10:45 PM 33.8 °F 27.0 °F 26.6 °F 75% 29.68 in 10.0 mi NNW 8.1 mph 18.4 mph N/A   Overcast
10:53 PM 34.0 °F 27.2 °F 26.1 °F 73% 29.70 in 10.0 mi NNW 8.1 mph 19.6 mph N/A   Overcast
11:35 PM 32.0 °F 24.2 °F 24.8 °F 75% 29.68 in 10.0 mi NNW 9.2 mph 18.4 mph N/A   Overcast
11:53 PM 32.0 °F 24.8 °F 23.0 °F 69% 29.70 in 10.0 mi NNW 8.1 mph - N/A   Overcast